カタログに戻る

CZ-6A DEB

運用中PO
NORAD 61382·DEBRIS·🇨🇳 China

打ち上げ Aug 6, 2024 から Taiyuan Satellite Launch Center

Loading…

次のパス (今後24時間)

TLE

最新Source: Space-Track

元期: Sep 14, 2026, 10:03 UTC

1 61382U 24140WX  26257.41907171  .00001640  00000-0  39263-3 0  9990
2 61382  88.9431 255.2346 0083533   0.2175 359.9053 14.50991396107019

AllMySatでCZ-6A DEBをリアルタイム追跡

Download on the App Store